Zurück zum Katalog

STARLINK-3721

AktivKommunikationVLEO
NORAD 52134·PAYLOAD·🇺🇸 United States

Gestartet Mar 19, 2022 von Cape Canaveral Space Force Station

Loading…

Nächste Überflüge (nächste 24 Stunden)

TLE

AktuellSource: CelesTrak SupGP

Epoche: Sep 15, 2026, 01:41 UTC

1 52134C 22029AY  26258.07062500  .00015348  00000+0  45341-3 0  2581
2 52134  53.1577 292.8041 0001207  95.8693 324.2787 15.34387137    17

Verfolge STARLINK-3721 in Echtzeit mit AllMySat

Download on the App Store